Time,TemperatureF,DewpointF,PressureIn,WindDirection,WindDirectionDegrees,WindSpeedMPH,WindSpeedGustMPH,Humidity,HourlyPrecipIn,Conditions,Clouds,dailyrainin,SoftwareType,DateUTC
2013-05-15 00:03:00,73.0,55.0,-100.00,SSW,200,9.0,12.0,53,0.00,,,-99.99,,2013-05-15 04:03:00,
2013-05-15 00:12:00,73.0,55.0,-100.00,South,190,9.0,13.0,54,0.00,,,-99.99,,2013-05-15 04:12:00,
2013-05-15 00:24:00,73.0,55.0,-100.00,SSW,195,10.0,18.0,53,0.00,,,-99.99,,2013-05-15 04:24:00,
2013-05-15 00:33:00,72.0,56.0,-100.00,SSW,210,6.0,12.0,55,1.69,,,-99.99,,2013-05-15 04:33:00,
2013-05-15 00:42:00,72.0,56.0,-100.00,South,190,3.0,7.0,56,0.00,,,-99.99,,2013-05-15 04:42:00,
2013-05-15 00:52:00,72.0,56.0,-100.00,South,185,3.0,6.0,57,0.00,,,-99.99,,2013-05-15 04:52:00,
2013-05-15 01:02:00,72.0,56.0,-100.00,South,180,3.0,6.0,57,0.00,,,-99.99,,2013-05-15 05:02:00,
2013-05-15 01:12:00,72.0,56.0,-100.00,SSE,165,3.0,5.0,57,0.00,,,-99.99,,2013-05-15 05:12:00,
2013-05-15 01:22:00,72.0,56.0,-100.00,SSW,200,2.0,6.0,57,0.00,,,-99.99,,2013-05-15 05:22:00,
2013-05-15 01:32:00,71.0,56.0,-100.00,South,180,7.0,9.0,58,0.00,,,-99.99,,2013-05-15 05:32:00,
2013-05-15 01:42:00,71.0,56.0,-100.00,South,190,9.0,11.0,59,0.00,,,-99.99,,2013-05-15 05:42:00,
2013-05-15 01:52:00,71.0,56.0,-100.00,South,185,7.0,10.0,59,0.00,,,-99.99,,2013-05-15 05:52:00,
2013-05-15 02:02:00,71.0,56.0,-100.00,South,185,7.0,9.0,60,0.00,,,-99.99,,2013-05-15 06:02:00,
2013-05-15 02:11:00,70.0,56.0,-100.00,South,185,7.0,11.0,61,0.00,,,-99.99,,2013-05-15 06:11:00,
2013-05-15 02:21:00,70.0,57.0,-100.00,South,185,7.0,10.0,62,0.00,,,-99.99,,2013-05-15 06:21:00,
2013-05-15 02:32:00,70.0,57.0,-100.00,South,175,9.0,12.0,62,0.00,,,-99.99,,2013-05-15 06:32:00,
2013-05-15 02:42:00,70.0,57.0,-100.00,South,180,8.0,12.0,63,0.00,,,-99.99,,2013-05-15 06:42:00,
2013-05-15 02:52:00,70.0,57.0,-100.00,South,185,10.0,15.0,64,0.00,,,-99.99,,2013-05-15 06:52:00,
2013-05-15 03:01:00,70.0,57.0,-100.00,South,190,7.0,12.0,65,0.00,,,-99.99,,2013-05-15 07:01:00,
2013-05-15 03:11:00,70.0,58.0,-100.00,South,180,9.0,11.0,64,0.00,,,-99.99,,2013-05-15 07:11:00,
2013-05-15 03:22:00,70.0,58.0,-100.00,South,185,9.0,12.0,65,0.00,,,-99.99,,2013-05-15 07:22:00,
2013-05-15 03:32:00,70.0,58.0,-100.00,South,180,9.0,12.0,65,0.00,,,-99.99,,2013-05-15 07:32:00,
2013-05-15 03:41:00,70.0,58.0,-100.00,South,185,9.0,13.0,66,0.00,,,-99.99,,2013-05-15 07:41:00,
2013-05-15 03:52:00,70.0,58.0,-100.00,South,175,11.0,16.0,66,0.00,,,-99.99,,2013-05-15 07:52:00,
2013-05-15 04:02:00,70.0,58.0,-100.00,South,180,12.0,17.0,66,0.00,,,-99.99,,2013-05-15 08:02:00,
2013-05-15 04:12:00,70.0,58.0,-100.00,South,185,15.0,19.0,66,0.00,,,-99.99,,2013-05-15 08:12:00,
2013-05-15 04:21:00,70.0,58.0,-100.00,SSW,195,15.0,19.0,66,0.00,,,-99.99,,2013-05-15 08:21:00,
2013-05-15 04:32:00,70.0,58.0,-100.00,South,185,13.0,20.0,66,0.00,,,-99.99,,2013-05-15 08:32:00,
2013-05-15 04:42:00,70.0,58.0,-100.00,South,180,12.0,19.0,66,0.00,,,-99.99,,2013-05-15 08:42:00,
2013-05-15 04:53:00,70.0,58.0,-100.00,South,185,16.0,23.0,66,0.00,,,-99.99,,2013-05-15 08:53:00,
2013-05-15 05:01:00,70.0,58.0,-100.00,SSW,195,18.0,24.0,67,0.00,,,-99.99,,2013-05-15 09:01:00,
2013-05-15 05:11:00,70.0,58.0,-100.00,SSW,195,16.0,24.0,67,0.00,,,-99.99,,2013-05-15 09:11:00,
2013-05-15 05:21:00,70.0,59.0,-100.00,South,190,16.0,21.0,68,0.00,,,-99.99,,2013-05-15 09:21:00,
2013-05-15 05:33:00,70.0,58.0,-100.00,SSW,195,15.0,21.0,67,0.00,,,-99.99,,2013-05-15 09:33:00,
2013-05-15 05:42:00,70.0,58.0,-100.00,South,190,13.0,19.0,67,0.00,,,-99.99,,2013-05-15 09:42:00,
2013-05-15 05:53:00,71.0,58.0,-100.00,SSW,195,17.0,22.0,65,0.00,,,-99.99,,2013-05-15 09:53:00,
2013-05-15 06:02:00,71.0,58.0,-100.00,SSW,195,13.0,22.0,63,0.00,,,-99.99,,2013-05-15 10:02:00,
2013-05-15 06:13:00,71.0,58.0,-100.00,South,190,14.0,21.0,63,0.00,,,-99.99,,2013-05-15 10:13:00,
2013-05-15 06:22:00,71.0,58.0,-100.00,SSW,200,14.0,21.0,62,0.00,,,-99.99,,2013-05-15 10:22:00,
2013-05-15 06:32:00,71.0,58.0,-100.00,SSW,200,13.0,20.0,62,0.00,,,-99.99,,2013-05-15 10:32:00,
2013-05-15 06:42:00,71.0,57.0,-100.00,SSW,200,14.0,20.0,61,0.00,,,-99.99,,2013-05-15 10:42:00,
2013-05-15 06:52:00,72.0,57.0,-100.00,SSW,200,14.0,22.0,60,0.00,,,-99.99,,2013-05-15 10:52:00,
2013-05-15 07:18:00,72.0,56.0,-100.00,SSW,205,16.0,22.0,58,0.00,,,-99.99,,2013-05-15 11:18:00,
2013-05-15 07:27:00,72.0,56.0,-100.00,SSW,205,16.0,23.0,58,0.00,,,-99.99,,2013-05-15 11:27:00,
2013-05-15 07:38:00,72.0,56.0,-100.00,SSW,210,18.0,26.0,57,0.00,,,-99.99,,2013-05-15 11:38:00,
2013-05-15 07:47:00,72.0,56.0,-100.00,SSW,210,17.0,23.0,56,0.00,,,-99.99,,2013-05-15 11:47:00,
2013-05-15 07:56:00,73.0,56.0,-100.00,SW,220,17.0,23.0,56,0.00,,,-99.99,,2013-05-15 11:56:00,
2013-05-15 08:09:00,73.0,56.0,-100.00,SW,215,18.0,25.0,54,0.00,,,-99.99,,2013-05-15 12:09:00,
2013-05-15 08:15:00,73.0,55.0,-100.00,SW,225,19.0,24.0,53,0.00,,,-99.99,,2013-05-15 12:15:00,
2013-05-15 08:47:00,74.0,55.0,-100.00,SW,235,17.0,24.0,51,0.00,,,-99.99,,2013-05-15 12:47:00,
2013-05-15 08:54:00,74.0,55.0,-100.00,SW,225,22.0,29.0,51,0.00,,,-99.99,,2013-05-15 12:54:00,
2013-05-15 09:10:00,74.0,55.0,-100.00,SW,225,18.0,26.0,52,0.00,,,-99.99,,2013-05-15 13:10:00,
2013-05-15 09:26:00,74.0,55.0,-100.00,SW,235,17.0,26.0,52,0.00,,,-99.99,,2013-05-15 13:26:00,
2013-05-15 09:36:00,74.0,55.0,-100.00,SW,235,16.0,29.0,51,0.00,,,-99.99,,2013-05-15 13:36:00,
2013-05-15 09:46:00,75.0,55.0,-100.00,SW,235,20.0,27.0,50,0.00,,,-99.99,,2013-05-15 13:46:00,
2013-05-15 10:07:00,76.0,55.0,-100.00,WSW,240,21.0,27.0,48,0.00,,,-99.99,,2013-05-15 14:07:00,
2013-05-15 10:14:00,76.0,55.0,-100.00,West,260,17.0,28.0,47,0.00,,,-99.99,,2013-05-15 14:14:00,
2013-05-15 10:26:00,77.0,55.0,-100.00,WSW,245,17.0,25.0,47,0.00,,,-99.99,,2013-05-15 14:26:00,
2013-05-15 10:38:00,77.0,55.0,-100.00,WSW,240,23.0,33.0,46,0.00,,,-99.99,,2013-05-15 14:38:00,
2013-05-15 10:53:00,78.0,55.0,-100.00,SW,235,20.0,29.0,45,0.00,,,-99.99,,2013-05-15 14:53:00,
2013-05-15 11:08:00,78.0,55.0,-100.00,WSW,240,24.0,30.0,44,0.00,,,-99.99,,2013-05-15 15:08:00,
2013-05-15 11:16:00,79.0,55.0,-100.00,West,265,17.0,26.0,43,0.00,,,-99.99,,2013-05-15 15:16:00,
2013-05-15 11:27:00,80.0,54.0,-100.00,West,265,20.0,27.0,40,0.00,,,-99.99,,2013-05-15 15:27:00,
2013-05-15 11:37:00,80.0,54.0,-100.00,SW,235,17.0,26.0,40,0.00,,,-99.99,,2013-05-15 15:37:00,
2013-05-15 11:47:00,80.0,53.0,-100.00,West,265,18.0,27.0,39,0.00,,,-99.99,,2013-05-15 15:47:00,
2013-05-15 11:57:00,81.0,53.0,-100.00,West,280,16.0,28.0,38,0.00,,,-99.99,,2013-05-15 15:57:00,
2013-05-15 12:10:00,81.0,53.0,-100.00,West,265,21.0,29.0,38,0.00,,,-99.99,,2013-05-15 16:10:00,
2013-05-15 12:28:00,81.0,53.0,-100.00,West,260,20.0,27.0,37,0.00,,,-99.99,,2013-05-15 16:28:00,
2013-05-15 12:37:00,82.0,53.0,-100.00,WSW,250,15.0,25.0,36,0.00,,,-99.99,,2013-05-15 16:37:00,
2013-05-15 12:47:00,82.0,51.0,-100.00,WSW,255,18.0,32.0,35,0.00,,,-99.99,,2013-05-15 16:47:00,
2013-05-15 12:53:00,81.0,53.0,-100.00,WSW,245,23.0,30.0,37,0.00,,,-99.99,,2013-05-15 16:53:00,
2013-05-15 13:11:00,81.0,56.0,-100.00,WSW,240,14.0,29.0,42,0.00,,,-99.99,,2013-05-15 17:11:00,
2013-05-15 13:19:00,82.0,52.0,-100.00,West,280,11.0,22.0,36,0.00,,,-99.99,,2013-05-15 17:19:00,
2013-05-15 13:27:00,82.0,51.0,-100.00,WNW,290,18.0,25.0,34,0.00,,,-99.99,,2013-05-15 17:27:00,
2013-05-15 13:38:00,83.0,50.0,-100.00,NW,305,19.0,25.0,32,0.00,,,-99.99,,2013-05-15 17:38:00,
2013-05-15 13:45:00,82.0,49.0,-100.00,West,265,22.0,29.0,31,0.00,,,-99.99,,2013-05-15 17:45:00,
2013-05-15 13:56:00,83.0,47.0,-100.00,WNW,290,18.0,29.0,28,0.00,,,-99.99,,2013-05-15 17:56:00,
2013-05-15 14:07:00,83.0,47.0,-100.00,WNW,295,21.0,29.0,28,0.00,,,-99.99,,2013-05-15 18:07:00,
2013-05-15 14:16:00,83.0,46.0,-100.00,WNW,290,17.0,29.0,27,0.00,,,-99.99,,2013-05-15 18:16:00,
2013-05-15 14:37:00,83.0,43.0,-100.00,West,275,22.0,34.0,24,0.00,,,-99.99,,2013-05-15 18:37:00,
2013-05-15 14:46:00,84.0,42.0,-100.00,WSW,245,24.0,35.0,22,0.00,,,-99.99,,2013-05-15 18:46:00,
2013-05-15 15:09:00,83.0,42.0,-100.00,WSW,250,24.0,35.0,23,0.00,,,-99.99,,2013-05-15 19:09:00,
2013-05-15 15:15:00,83.0,42.0,-100.00,West,260,24.0,30.0,23,0.00,,,-99.99,,2013-05-15 19:15:00,
2013-05-15 15:30:00,84.0,43.0,-100.00,West,260,19.0,25.0,23,0.00,,,-99.99,,2013-05-15 19:30:00,
2013-05-15 15:38:00,84.0,43.0,-100.00,West,275,17.0,25.0,23,0.00,,,-99.99,,2013-05-15 19:38:00,
2013-05-15 15:45:00,83.0,44.0,-100.00,West,260,20.0,29.0,24,0.00,,,-99.99,,2013-05-15 19:45:00,
2013-05-15 15:54:00,84.0,43.0,-100.00,West,280,15.0,22.0,23,0.00,,,-99.99,,2013-05-15 19:54:00,
2013-05-15 16:08:00,85.0,42.0,-100.00,WNW,290,15.0,25.0,22,0.00,,,-99.99,,2013-05-15 20:08:00,
2013-05-15 16:18:00,84.0,41.0,-100.00,West,280,18.0,26.0,21,0.00,,,-99.99,,2013-05-15 20:18:00,
2013-05-15 16:28:00,84.0,42.0,-100.00,West,280,20.0,27.0,22,0.00,,,-99.99,,2013-05-15 20:28:00,
2013-05-15 16:46:00,85.0,42.0,-100.00,WNW,290,17.0,24.0,21,0.00,,,-99.99,,2013-05-15 20:46:00,
2013-05-15 16:53:00,85.0,41.0,-100.00,West,270,19.0,24.0,21,0.00,,,-99.99,,2013-05-15 20:53:00,
2013-05-15 17:09:00,85.0,40.0,-100.00,WSW,240,20.0,26.0,21,0.00,,,-99.99,,2013-05-15 21:09:00,
2013-05-15 17:19:00,85.0,40.0,-100.00,West,260,21.0,28.0,20,0.00,,,-99.99,,2013-05-15 21:19:00,
2013-05-15 17:28:00,85.0,41.0,-100.00,WNW,285,13.0,28.0,21,0.00,,,-99.99,,2013-05-15 21:28:00,
2013-05-15 17:41:00,84.0,40.0,-100.00,WSW,250,19.0,27.0,21,0.00,,,-99.99,,2013-05-15 21:41:00,
2013-05-15 17:56:00,83.0,41.0,-100.00,West,270,16.0,25.0,22,0.00,,,-99.99,,2013-05-15 21:56:00,
2013-05-15 18:11:00,84.0,41.0,-100.00,West,280,14.0,23.0,21,0.00,,,-99.99,,2013-05-15 22:11:00,
2013-05-15 18:18:00,83.0,42.0,-100.00,WSW,250,17.0,26.0,23,0.00,,,-99.99,,2013-05-15 22:18:00,
2013-05-15 18:29:00,83.0,42.0,-100.00,WSW,255,19.0,25.0,23,0.00,,,-99.99,,2013-05-15 22:29:00,
2013-05-15 18:40:00,82.0,43.0,-100.00,SW,235,15.0,24.0,24,0.00,,,-99.99,,2013-05-15 22:40:00,
2013-05-15 18:48:00,82.0,43.0,-100.00,WSW,255,21.0,25.0,25,0.00,,,-99.99,,2013-05-15 22:48:00,
2013-05-15 18:54:00,82.0,44.0,-100.00,WSW,245,18.0,28.0,25,0.00,,,-99.99,,2013-05-15 22:54:00,
2013-05-15 19:15:00,82.0,43.0,-100.00,WSW,250,20.0,25.0,25,0.00,,,-99.99,,2013-05-15 23:15:00,
2013-05-15 19:28:00,82.0,43.0,-100.00,WSW,240,17.0,25.0,26,0.00,,,-99.99,,2013-05-15 23:28:00,
2013-05-15 19:55:00,81.0,45.0,-100.00,West,265,13.0,23.0,27,0.00,,,-99.99,,2013-05-15 23:55:00,
2013-05-15 20:07:00,81.0,44.0,-100.00,WSW,255,19.0,24.0,28,0.00,,,-99.99,,2013-05-16 00:07:00,
2013-05-15 20:17:00,80.0,44.0,-100.00,SW,235,17.0,25.0,27,0.00,,,-99.99,,2013-05-16 00:17:00,
2013-05-15 20:26:00,80.0,44.0,-100.00,West,260,11.0,21.0,28,0.00,,,-99.99,,2013-05-16 00:26:00,
2013-05-15 20:36:00,80.0,43.0,-100.00,West,270,13.0,21.0,27,0.00,,,-99.99,,2013-05-16 00:36:00,
2013-05-15 20:49:00,79.0,43.0,-100.00,West,265,12.0,20.0,27,0.00,,,-99.99,,2013-05-16 00:49:00,
2013-05-15 21:07:00,79.0,43.0,-100.00,WNW,285,9.0,14.0,28,0.00,,,-99.99,,2013-05-16 01:07:00,
2013-05-15 21:17:00,78.0,43.0,-100.00,WNW,285,8.0,12.0,28,0.00,,,-99.99,,2013-05-16 01:17:00,
2013-05-15 21:29:00,78.0,43.0,-100.00,West,275,10.0,13.0,29,0.00,,,-99.99,,2013-05-16 01:29:00,
2013-05-15 21:37:00,77.0,44.0,-100.00,WNW,285,7.0,12.0,30,0.00,,,-99.99,,2013-05-16 01:37:00,
2013-05-15 21:48:00,77.0,44.0,-100.00,West,280,9.0,12.0,30,0.00,,,-99.99,,2013-05-16 01:48:00,
2013-05-15 21:56:00,76.0,44.0,-100.00,WNW,295,11.0,15.0,31,0.00,,,-99.99,,2013-05-16 01:56:00,
2013-05-15 22:08:00,76.0,44.0,-100.00,WNW,300,10.0,15.0,31,0.00,,,-99.99,,2013-05-16 02:08:00,
2013-05-15 22:16:00,76.0,44.0,-100.00,WNW,285,9.0,12.0,32,0.00,,,-99.99,,2013-05-16 02:16:00,
2013-05-15 22:28:00,75.0,44.0,-100.00,WNW,290,8.0,12.0,32,0.00,,,-99.99,,2013-05-16 02:28:00,
2013-05-15 22:38:00,75.0,44.0,-100.00,West,280,7.0,12.0,32,0.00,,,-99.99,,2013-05-16 02:38:00,
2013-05-15 22:46:00,75.0,44.0,-100.00,West,280,7.0,12.0,32,0.00,,,-99.99,,2013-05-16 02:46:00,
2013-05-15 22:54:00,75.0,44.0,-100.00,West,280,7.0,12.0,32,0.00,,,-99.99,,2013-05-16 02:54:00,
2013-05-15 23:07:00,74.0,44.0,-100.00,West,260,7.0,10.0,33,0.00,,,-99.99,,2013-05-16 03:07:00,
2013-05-15 23:16:00,74.0,44.0,-100.00,West,275,7.0,9.0,33,0.00,,,-99.99,,2013-05-16 03:16:00,
2013-05-15 23:38:00,73.0,44.0,-100.00,West,260,6.0,8.0,34,0.00,,,-99.99,,2013-05-16 03:38:00,
2013-05-15 23:45:00,73.0,44.0,-100.00,West,270,5.0,7.0,35,0.00,,,-99.99,,2013-05-16 03:45:00,
2013-05-15 23:55:00,73.0,44.0,-100.00,WNW,290,6.0,9.0,35,0.00,,,-99.99,,2013-05-16 03:55:00,